W4CPD Weather Reports


time (UTC)temp
C
wind
direction
speed
KPH
gust
KPH
rain 1hr
cm
rain 24hr
cm
rain mn
cm
humidity
%
barometer
mb
20260504040032 13 338 0.0 4.8 0.00 0.58 0.56 78 1019.5
20260504035514 13 338 1.6 4.8 0.00 0.64 0.56 79 1019.6
20260504035018 14 338 0.0 1.6 0.00 0.64 0.56 79 1019.7
20260504034540 14 0 0.0 3.2 0.00 0.64 0.56 79 1019.6
20260504034013 14 0 0.0 4.8 0.00 0.64 0.56 80 1019.6
20260504033521 14 0 0.0 4.8 0.00 0.64 0.56 80 1019.6
20260504033033 14 338 1.6 4.8 0.00 0.64 0.56 80 1019.5
20260504032516 14 333 1.6 6.4 0.00 0.64 0.56 79 1019.7
20260504032014 14 333 1.6 6.4 0.00 0.64 0.56 79 1019.8
20260504031535 14 327 1.6 4.8 0.00 0.64 0.56 79 1019.8
20260504031013 15 327 1.6 4.8 0.03 0.64 0.56 79 1019.8
20260504030514 15 327 1.6 4.8 0.03 0.64 0.56 78 1019.9
20260504030038 15 327 1.6 3.2 0.03 0.64 0.56 77 1019.8
20260504025512 15 0 0.0 1.6 0.03 0.66 0.56 76 1019.8
20260504025014 15 0 0.0 1.6 0.03 0.66 0.56 75 1019.9
20260504024533 15 0 0.0 1.6 0.03 0.66 0.56 75 1019.8
20260504024020 15 0 0.0 1.6 0.03 0.66 0.56 74 1019.8
20260504023514 15 0 0.0 3.2 0.03 0.66 0.56 73 1019.6
20260504023034 15 0 0.0 3.2 0.03 0.66 0.56 72 1019.7
20260504022516 16 327 0.0 3.2 0.03 0.66 0.56 71 1019.6
20260504022014 16 0 0.0 3.2 0.03 0.66 0.56 71 1019.5
20260504021532 16 0 0.0 3.2 0.03 0.66 0.56 71 1019.5
20260504021014 16 0 0.0 4.8 0.00 0.64 0.53 70 1019.5
20260504020512 16 327 1.6 4.8 0.00 0.64 0.53 71 1019.4
20260504020038 16 326 1.6 3.2 0.00 0.64 0.53 70 1019.3
20260504015514 17 325 0.0 3.2 0.00 0.69 0.53 69 1019.2
20260504015017 17 0 0.0 3.2 0.00 0.69 0.53 70 1019.2
20260504014532 17 0 0.0 3.2 0.00 0.69 0.53 70 1019.2
20260504014014 17 0 0.0 4.8 0.00 0.69 0.53 69 1019.2
20260504013513 17 325 0.0 4.8 0.00 0.69 0.53 69 1019.0
20260504013031 17 325 0.0 3.2 0.00 0.69 0.53 67 1018.8
20260504012525 17 325 0.0 3.2 0.00 0.69 0.53 64 1018.9
20260504012015 18 0 0.0 0.0 0.00 0.69 0.53 64 1018.9
20260504011530 18 0 0.0 0.0 0.00 0.69 0.53 65 1018.8
20260504011013 18 0 0.0 0.0 0.00 0.69 0.53 64 1018.8
20260504010516 18 0 0.0 0.0 0.03 0.69 0.53 62 1018.7
20260504010038 19 0 0.0 0.0 0.03 0.69 0.53 60 1018.6
20260504005514 19 0 0.0 0.0 0.03 0.76 0.53 57 1018.4
20260504005014 20 0 0.0 0.0 0.03 0.76 0.53 57 1018.5
20260504004531 20 0 0.0 0.0 0.03 0.76 0.53 57 1018.4
20260504004015 20 0 0.0 1.6 0.03 0.76 0.53 56 1018.5
20260504003512 21 0 0.0 1.6 0.03 0.76 0.53 55 1018.4
20260504003029 21 0 0.0 1.6 0.03 0.76 0.53 53 1018.4
20260504002514 21 0 0.0 1.6 0.03 0.76 0.53 52 1018.3
20260504002012 22 0 0.0 4.8 0.03 0.76 0.53 53 1018.3
20260504001529 22 0 0.0 4.8 0.03 0.76 0.53 54 1018.3
20260504001013 22 0 0.0 6.4 0.03 0.76 0.53 51 1018.3
20260504000513 22 0 0.0 8.0 0.00 0.74 0.51 50 1018.3
20260504000034 22 325 1.6 8.0 0.00 0.74 0.51 50 1018.2
20260503235513 23 331 1.6 8.0 0.00 0.79 0.51 51 1018.2
20260503235015 23 317 1.6 8.0 0.00 0.79 0.51 48 1018.2
20260503234533 23 309 3.2 8.0 0.00 0.79 0.51 47 1018.2
20260503234013 23 350 1.6 9.7 0.03 0.79 0.51 44 1018.1
20260503233514 24 355 3.2 9.7 0.03 0.79 0.51 44 1018.3
20260503233033 24 325 4.8 9.7 0.03 0.79 0.51 40 1018.2
20260503232515 25 341 3.2 8.0 0.03 0.79 0.51 39 1018.3
20260503232014 25 26 1.6 8.0 0.03 0.79 0.51 41 1018.3
20260503231543 25 41 1.6 8.0 0.03 0.79 0.51 38 1018.4
20260503231014 25 12 1.6 8.0 0.03 0.79 0.51 38 1018.3
20260503230514 25 21 3.2 12.9 0.03 0.79 0.51 40 1018.3
20260503230035 25 323 4.8 12.9 0.03 0.79 0.51 38 1018.3
20260503225513 25 360 3.2 12.9 0.03 0.89 0.51 36 1018.3
20260503225013 25 9 4.8 12.9 0.03 0.89 0.51 38 1018.3
20260503224532 26 325 4.8 11.3 0.03 0.89 0.51 37 1018.3
20260503224013 26 336 1.6 9.7 0.00 0.86 0.48 36 1018.3
20260503223513 25 0 1.6 16.1 0.03 0.86 0.48 37 1018.1
20260503223030 26 342 6.4 16.1 0.03 0.86 0.48 36 1018.0
20260503222514 26 313 3.2 11.3 0.03 0.86 0.48 35 1018.1
20260503222013 26 355 4.8 12.9 0.03 0.86 0.48 34 1018.2
20260503221529 25 317 1.6 14.5 0.03 0.86 0.48 36 1018.1
20260503221015 25 298 4.8 19.3 0.03 0.86 0.48 36 1018.2
20260503220513 25 329 9.7 19.3 0.03 0.86 0.48 33 1018.2
20260503220038 26 307 8.0 19.3 0.03 0.86 0.48 36 1018.2
20260503215515 25 323 3.2 16.1 0.03 0.97 0.48 36 1018.2
20260503215014 25 295 6.4 16.1 0.03 0.97 0.48 37 1018.1
20260503214540 25 360 4.8 17.7 0.03 0.97 0.48 35 1018.2
20260503214014 25 323 9.7 22.5 0.03 0.97 0.48 34 1018.3
20260503213515 25 295 11.3 22.5 0.00 0.94 0.46 33 1018.3
20260503213048 25 319 4.8 17.7 0.03 0.94 0.46 33 1018.4
20260503212516 26 13 8.0 17.7 0.03 0.94 0.46 34 1018.6
20260503212014 26 20 6.4 20.9 0.03 0.94 0.46 36 1018.6
20260503211542 26 347 4.8 24.1 0.03 0.94 0.46 35 1018.7
20260503211019 26 352 9.7 24.1 0.03 0.94 0.46 34 1018.8
20260503210515 26 346 4.8 17.7 0.03 0.94 0.46 38 1018.8
20260503210035 26 321 8.0 17.7 0.03 0.94 0.46 34 1018.6
20260503205517 26 328 6.4 19.3 0.03 1.07 0.46 34 1018.9
20260503205017 26 355 4.8 20.9 0.03 1.07 0.46 35 1018.9
20260503204549 26 349 4.8 20.9 0.05 1.07 0.46 38 1019.1
20260503204013 26 325 11.3 20.9 0.05 1.07 0.46 35 1019.1
20260503203517 26 51 8.0 19.3 0.05 1.07 0.46 36 1019.0
20260503203033 26 307 4.8 22.5 0.03 1.04 0.43 36 1019.2
20260503202517 26 332 6.4 22.5 0.03 1.04 0.43 37 1019.2
20260503202017 26 26 4.8 19.3 0.03 1.04 0.43 37 1019.2
20260503201533 26 240 8.0 19.3 0.03 1.04 0.43 37 1019.2
20260503201013 26 337 6.4 14.5 0.03 1.04 0.43 34 1019.2
20260503200515 26 268 4.8 14.5 0.05 1.04 0.43 39 1019.3
20260503200035 26 349 6.4 14.5 0.05 1.04 0.43 34 1019.3
20260503195513 26 251 3.2 14.5 0.05 1.14 0.43 39 1019.4
20260503195013 26 0 1.6 12.9 0.05 1.14 0.43 37 1019.4
20260503194531 25 266 6.4 12.9 0.03 1.12 0.41 42 1019.6
20260503194015 25 292 3.2 19.3 0.03 1.12 0.41 37 1019.6
20260503193515 25 10 11.3 19.3 0.03 1.12 0.41 36 1019.8
20260503193034 26 317 8.0 16.1 0.03 1.12 0.41 38 1019.9
20260503192517 26 334 3.2 16.1 0.05 1.12 0.41 41 1019.9
20260503192015 25 11 4.8 19.3 0.05 1.12 0.41 39 1020.1
20260503191537 25 312 9.7 20.9 0.05 1.12 0.41 38 1020.2
20260503191018 25 338 8.0 20.9 0.03 1.09 0.38 38 1020.2
20260503190514 25 344 4.8 16.1 0.03 1.09 0.38 42 1020.4
20260503190030 25 16 4.8 17.7 0.03 1.09 0.38 42 1020.5
20260503185516 24 28 4.8 17.7 0.03 1.22 0.38 39 1020.6
20260503185013 24 62 9.7 17.7 0.03 1.22 0.38 41 1020.9
20260503184534 23 284 4.8 20.9 0.03 1.22 0.38 36 1020.8
20260503184015 23 13 6.4 27.4 0.05 1.22 0.38 39 1021.1
20260503183513 23 360 8.0 27.4 0.05 1.22 0.38 37 1021.2
20260503183040 23 11 9.7 25.7 0.05 1.22 0.38 39 1021.1
20260503182515 23 317 9.7 25.7 0.03 1.19 0.36 38 1021.2
20260503182015 23 342 12.9 25.7 0.03 1.19 0.36 37 1021.3
20260503181530 23 327 8.0 25.7 0.03 1.19 0.36 41 1021.1
20260503181014 23 310 12.9 25.7 0.03 1.19 0.36 38 1021.2
20260503180512 23 355 6.4 27.4 0.03 1.19 0.36 39 1021.2
20260503180035 23 336 16.1 27.4 0.05 1.19 0.36 37 1021.3
20260503175512 23 328 12.9 24.1 0.05 1.32 0.36 40 1021.3
20260503175012 23 0 3.2 20.9 0.05 1.32 0.36 41 1021.2
20260503174538 23 323 8.0 20.9 0.05 1.32 0.36 43 1021.2
20260503174013 23 324 9.7 20.9 0.03 1.30 0.33 42 1021.4
20260503173514 23 352 9.7 20.9 0.03 1.30 0.33 37 1021.4
20260503173031 23 18 11.3 19.3 0.03 1.30 0.33 39 1021.6
20260503172515 22 5 6.4 20.9 0.03 1.30 0.33 45 1021.6
20260503172013 22 349 9.7 25.7 0.03 1.30 0.33 42 1021.6
20260503171534 22 34 11.3 25.7 0.03 1.30 0.33 40 1021.7
20260503171015 22 339 11.3 25.7 0.05 1.30 0.33 39 1021.9
20260503170515 22 344 6.4 25.7 0.05 1.30 0.33 39 1021.8
20260503150516 19 16 4.8 12.9 0.00 1.32 0.25 57 1023.0
20260503131013 12 19 3.2 9.7 0.03 1.47 0.23 84 1021.9
20260503130517 11 41 4.8 12.9 0.03 1.47 0.23 84 1021.7
20260503110519 7 0 1.6 6.4 0.03 1.63 0.18 94 1021.0
20260503081543 8 348 1.6 4.8 0.03 1.80 0.10 92 1019.8
20260503081019 8 347 1.6 8.0 0.03 1.80 0.10 92 1019.8
20260503080514 8 347 1.6 8.0 0.03 1.80 0.10 92 1019.7
20260503072519 9 0 0.0 4.8 0.03 1.85 0.08 91 1019.7
20260503072012 9 336 1.6 4.8 0.03 1.85 0.08 91 1019.6
20260503071548 9 336 1.6 4.8 0.03 1.85 0.08 91 1019.6
20260503071013 9 0 0.0 4.8 0.03 1.85 0.08 91 1019.7
20260503070514 9 336 0.0 4.8 0.03 1.85 0.08 91 1019.6
20260503055014 10 337 0.0 6.4 0.05 2.01 0.05 90 1019.5
20260503054550 10 337 3.2 6.4 0.03 1.98 0.03 89 1019.4
20260503054019 10 336 1.6 6.4 0.03 1.98 0.03 89 1019.4
20260503053515 10 336 3.2 6.4 0.03 1.98 0.03 89 1019.4
20260503053028 10 336 3.2 6.4 0.03 1.98 0.03 88 1019.4
20260503052513 10 0 0.0 4.8 0.03 1.98 0.03 89 1019.4
20260503052015 10 336 1.6 4.8 0.03 1.98 0.03 88 1019.5
20260503051542 10 0 0.0 3.2 0.05 1.98 0.03 88 1019.5
20260503051017 11 0 0.0 3.2 0.05 1.98 0.03 88 1019.4
20260503050512 11 0 0.0 4.8 0.05 1.98 0.03 88 1019.3
20260503050028 11 0 0.0 6.4 0.03 1.96 0.00 89 1019.3
20260503045513 11 336 1.6 6.4 0.03 2.03 1.96 88 1019.3
20260503045016 11 336 3.2 6.4 0.03 2.03 1.96 87 1019.2
20260503044528 11 336 1.6 6.4 0.03 2.03 1.96 87 1019.1
20260503044012 11 336 1.6 4.8 0.03 2.03 1.96 87 1019.0
20260503043513 11 336 1.6 4.8 0.05 2.03 1.96 86 1019.1
20260503043031 11 0 1.6 4.8 0.05 2.03 1.96 86 1019.1
20260503042513 11 336 1.6 4.8 0.05 2.03 1.96 85 1019.1
20260503042014 11 336 0.0 3.2 0.05 2.03 1.96 86 1019.1
20260503041532 11 0 0.0 1.6 0.03 2.01 1.93 85 1019.0
20260503041014 11 0 0.0 1.6 0.03 2.01 1.93 85 1018.9
20260503040515 11 0 0.0 3.2 0.03 2.01 1.93 85 1018.9